Voltar ao catálogo

STARLINK-11371

AtivoComunicaçõesVLEO
NORAD 62879·PAYLOAD·🇺🇸 United States

Lançado Feb 4, 2025 de Cape Canaveral Space Force Station

Loading…

Próximas Passagens (próximas 24 horas)

TLE

AtualizadoSource: CelesTrak SupGP

Época: Sep 15, 2026, 02:55 UTC

1 62879C 25024A   26258.12201389  .00116870  00000+0  90708-3 0  2581
2 62879  43.0002 119.9145 0001716 276.5362 173.8808 15.70797994    13

Acompanhe STARLINK-11371 em tempo real com AllMySat

Download on the App Store